Location: Sagn�
(15.2046°N, 12.7898°W)
Time: 12:56:33
(UTC+00:00)

Cosmos 1553 Rocket - Pass Details

Date: 08 May 2021
Orbit: 942 x 1007 km, 82.9° (Epoch: 14 June)

Event Time Altitude Azimuth Distance (km) Brightness Sun altitude
Rises 20:12:35 0° 169° (S) 3,595 6.6 -14.8°
Reaches altitude 10° 20:15:09 10° 163° (SSE) 2,653 5.9 -15.4°
Maximum altitude 20:20:53 45° 91° (E) 1,260 4.2 -16.6°
Drops below altitude 10° 20:26:40 10° 20° (NNE) 2,679 6.3 -17.9°
Sets 20:29:16 0° 15° (NNE) 3,634 7.1 -18.5°
